Home   Weather   Ulyanovsk   Past weeks

Flag for Russia Past Weather in Ulyanovsk, Russia — Yesterday and Last 2 Weeks

Now
34 °F

Passing clouds.


Feels Like: 29 °F
Forecast: 27 / 32 °F
Wind: 6 mph from North

Location: Ulyanovsk Vostochny Airport

Current Time: Oct 23, 2017 at 11:05:21 pm

Latest Report: Oct 23, 2017 at 10:00 pm


Visibility: 5 mi

Pressure: 30.09 "Hg

Humidity: 70%

Dew Point: 25 °F

Location of UlyanovskLocation

Past Weather in Ulyanovsk — Graph

°F

Ulyanovsk Temperature Yesterday

Maximum temperature yesterday: 37 °F (at 1:00 pm)
Minimum temperature yesterday: 28 °F (at 8:00 am)
Average temperature yesterday: 33 °F

High & Low Weather Summary for the Past Weeks

 TemperatureHumidityPressure
High63 °F (Oct 9, 2:00 pm)100% (Oct 9, 7:00 am)30.24 "Hg (Oct 9, 7:00 am)
Low28 °F (Oct 12, 3:00 am)30% (Oct 9, 4:00 pm)29.50 "Hg (Oct 15, 6:00 pm)
Average43 °F81%29.90 "Hg
* Reported Oct 8 10:00 pm — Oct 23 10:00 pm, Ulyanovsk. Weather by CustomWeather, © 2017

Note: Actual official high and low records may vary slightly from our data, if they occured in-between our weather recording intervals... More about our weather records

Advertising

Ulyanovsk Weather History for the Previous 24 Hours

Scroll right to see more
 ConditionsComfort  
Time TempWeatherWind HumidityBarometerVisibility
10:00 pm
Mon, Oct 23
34 °FPassing clouds.6 mph70%30.09 "Hg5 mi
9:00 pm34 °FSnow flurries. Passing clouds.6 mph81%30.09 "Hg5 mi
8:00 pm34 °FSnow flurries. Passing clouds.8 mph81%30.09 "Hg5 mi
7:00 pm34 °FSnow flurries. Passing clouds.8 mph81%30.07 "Hg5 mi
6:00 pm34 °FSnow flurries. Partly sunny.8 mph81%30.07 "Hg3 mi
5:00 pm32 °FSnow flurries. Broken clouds.6 mph87%30.04 "Hg3 mi
4:00 pm32 °FSnow flurries. Partly sunny.3 mph93%30.04 "Hg2 mi
3:00 pm34 °FSnow flurries. Partly sunny.8 mph81%30.04 "Hg1 mi
2:00 pm36 °FSnow flurries. Partly sunny.6 mph81%30.04 "Hg5 mi
1:00 pm34 °FSnow flurries. Partly sunny.8 mph75%30.04 "Hg5 mi
12:00 pm34 °FSnow flurries. Partly sunny.10 mph75%30.04 "Hg5 mi
11:00 am36 °FPartly sunny.10 mph65%30.01 "Hg5 mi
10:00 am34 °FScattered clouds.8 mph70%30.01 "Hg5 mi
9:00 am34 °FScattered clouds.8 mph70%30.01 "Hg5 mi
8:00 am34 °FPassing clouds.6 mph65%30.01 "Hg5 mi
7:00 am32 °FPassing clouds.3 mph64%30.01 "Hg5 mi
6:00 am32 °FPassing clouds.3 mph64%30.01 "Hg5 mi
5:00 am32 °FPassing clouds.3 mph64%29.98 "Hg5 mi
4:00 am34 °FPassing clouds.1 mph60%29.98 "Hg5 mi
3:00 am34 °FPassing clouds.3 mph60%29.98 "Hg5 mi
2:00 am34 °FPassing clouds.3 mph60%29.98 "Hg5 mi
1:00 am32 °FPassing clouds.3 mph64%29.98 "Hg5 mi
12:00 am32 °FPassing clouds.1 mph69%29.98 "Hg5 mi
11:00 pm
Sun, Oct 22
34 °FPassing clouds.3 mph60%29.98 "Hg5 mi
Weather by CustomWeather, © 2017

See weather overview